Location: Juzet
(42.9779°N, 0.7597°E)
Time: 17:29:14
(UTC+00:00)

MSX - Pass Details

Date: 14 July 2020
Orbit: 894 x 906 km, 98.8° (Epoch: 13 August)

Event Time Altitude Azimuth Distance (km) Brightness Sun altitude
Rises 03:42:26 0° 12° (NNE) 3,519 7.8 -8.1°
Reaches altitude 10° 03:44:50 10° 11° (N) 2,575 7.1 -7.7°
Maximum altitude 03:50:34 77° 286° (WNW) 921 3.9 -6.9°
Drops below altitude 10° 03:56:17 10° 202° (SSW) 2,563 5.7 -6.1°
Enters shadow 03:58:24 - 201° (SSW) 3,393 6.3 -5.8°
